Weather History for Benton Harbor, MI

Change the Weather History Date:

Saturday, February 2, 2013

  Actual Average Record
Temperature  
Mean Temperature 20 °F -  
Max Temperature 25 °F 32 °F 50 °F (1968)
Min Temperature 14 °F 16 °F -12 °F (1951)
Degree Days  
Heating Degree Days 46    
Moisture  
Dew Point 15 °F    
Average Humidity 84    
Maximum Humidity 93    
Minimum Humidity 68    
Precipitation  
Precipitation 0.14 in - - ()
Sea Level Pressure  
Sea Level Pressure 30.04 in    
Wind  
Wind Speed 8 mph (South)    
Max Wind Speed 12 mph    
Max Gust Speed 16 mph    
Visibility 2 miles    
Events Fog , Snow    
Averages and records for this station are not official NWS values.
T = Trace of Precipitation, MM = Missing Value Source: NWS Daily Summary

Daily Weather History Graph

Daily Weather History Graph

Search for Another Location

Airport:

Trip Planner

Search our weather history database for the weather conditions in past years. The results will help you decide how hot, cold, wet, or windy it might be!

Date:

Astronomy

Feb. 02, 2013 Rise Set
Actual Time 7:57 AM EST 6:02 PM EST
Civil Twilight 7:27 AM EST 6:31 PM EST
Nautical Twilight 6:54 AM EST 7:05 PM EST
Astronomical Twilight 6:21 AM EST 7:37 PM EST
Moon 12:15 AM EST (2/2) 10:59 AM EST (2/2)
Length of Visible Light 11h 03m
Length of Day
10h 04m
Waning Gibbous, 60% of the Moon is Illuminated
Feb 2
Waning Gibbous
Feb 3
Last Quarter
Feb 10
New
Feb 17
First Quarter
Feb 25
Full

Hourly Weather History & Observations

Time (EST) Temp. Windchill Dew Point Humidity Pressure Visibility Wind Dir Wind Speed Gust Speed Precip Events Conditions
12:32 AM 14.0 °F 3.9 °F 8.6 °F 79% 30.18 in 1.8 mi South 6.9 mph - 0.00 in Snow Light Snow
12:41 AM 14.0 °F 5.1 °F 10.4 °F 86% 30.17 in 1.5 mi South 5.8 mph - 0.00 in Snow Light Snow
12:46 AM 14.0 °F 2.9 °F 10.4 °F 86% 30.17 in 2.0 mi South 8.1 mph - 0.00 in Snow Light Snow
12:53 AM 14.0 °F 3.9 °F 10.0 °F 84% 30.21 in 1.8 mi South 6.9 mph - 0.00 in Snow Light Snow
1:16 AM 14.0 °F 2.0 °F 10.4 °F 86% 30.16 in 1.2 mi South 9.2 mph - 0.00 in Snow Light Snow
1:33 AM 14.0 °F 2.0 °F 10.4 °F 86% 30.16 in 1.2 mi South 9.2 mph - 0.00 in Snow Light Snow
1:53 AM 15.1 °F 5.2 °F 10.9 °F 84% 30.19 in 0.8 mi South 6.9 mph - 0.00 in Snow Light Snow
2:00 AM 15.8 °F 5.1 °F 12.2 °F 86% 30.15 in 0.5 mi South 8.1 mph - 0.01 in Fog , Snow Snow
2:09 AM 15.8 °F 3.4 °F 12.2 °F 86% 30.15 in 0.8 mi South 10.4 mph - 0.01 in Snow Light Snow
2:38 AM 15.8 °F 4.2 °F 12.2 °F 86% 30.14 in 0.5 mi SSW 9.2 mph - 0.01 in Fog , Snow Snow
2:53 AM 16.0 °F 5.3 °F 12.0 °F 84% 30.17 in 0.8 mi South 8.1 mph - 0.02 in Snow Light Snow
3:15 AM 15.8 °F 2.7 °F 12.2 °F 86% 30.12 in 0.8 mi South 11.5 mph - 0.00 in Snow Light Snow
3:25 AM 15.8 °F 2.7 °F 12.2 °F 86% 30.11 in 1.0 mi South 11.5 mph - 0.00 in Snow Light Snow
3:51 AM 15.8 °F 3.4 °F 12.2 °F 86% 30.10 in 1.2 mi South 10.4 mph - 0.00 in Snow Light Snow
3:53 AM 16.0 °F 2.9 °F 12.9 °F 88% 30.14 in 1.2 mi South 11.5 mph - 0.00 in Snow Light Snow
4:00 AM 15.8 °F 4.2 °F 12.2 °F 86% 30.09 in 1.0 mi South 9.2 mph - 0.00 in Snow Light Snow
4:09 AM 15.8 °F 4.2 °F 12.2 °F 86% 30.09 in 0.8 mi South 9.2 mph - 0.00 in Snow Light Snow
4:24 AM 15.8 °F 3.4 °F 12.2 °F 86% 30.08 in 1.0 mi South 10.4 mph - 0.00 in Snow Light Snow
4:43 AM 17.6 °F 7.3 °F 12.2 °F 79% 30.07 in 1.5 mi South 8.1 mph - 0.00 in   Overcast
4:53 AM 17.1 °F 5.0 °F 12.9 °F 84% 30.10 in 1.5 mi South 10.4 mph - 0.00 in Snow Light Snow
5:10 AM 17.6 °F 6.4 °F 12.2 °F 79% 30.05 in 2.5 mi South 9.2 mph - 0.00 in Snow Light Snow
5:20 AM 17.6 °F 8.2 °F 14.0 °F 86% 30.05 in 1.2 mi South 6.9 mph - 0.00 in Snow Light Snow
5:31 AM 17.6 °F 6.4 °F 14.0 °F 86% 30.04 in 0.8 mi South 9.2 mph - 0.01 in Snow Light Snow
5:50 AM 17.6 °F 7.3 °F 14.0 °F 86% 30.03 in 0.8 mi South 8.1 mph - 0.01 in Snow Light Snow
5:53 AM 18.0 °F 7.7 °F 15.1 °F 88% 30.07 in 0.5 mi South 8.1 mph - 0.02 in Fog , Snow Snow
6:08 AM 17.6 °F 6.4 °F 15.8 °F 93% 30.03 in 0.8 mi South 9.2 mph - 0.00 in Snow Light Snow
6:53 AM 19.0 °F 9.0 °F 16.0 °F 88% 30.05 in 0.8 mi South 8.1 mph - 0.02 in   Overcast
7:04 AM 19.4 °F 10.4 °F 15.8 °F 86% 30.01 in 0.8 mi South 6.9 mph - 0.01 in   Mist
7:11 AM 19.4 °F 10.4 °F 15.8 °F 86% 30.01 in 1.0 mi South 6.9 mph - 0.01 in   Overcast
7:53 AM 19.9 °F 12.1 °F 17.1 °F 89% 30.04 in 1.0 mi South 5.8 mph - 0.02 in Snow Light Snow
8:03 AM 19.4 °F 9.5 °F 17.6 °F 93% 30.00 in 0.8 mi South 8.1 mph - 0.00 in Snow Light Snow
8:20 AM 19.4 °F 10.4 °F 17.6 °F 93% 30.00 in 1.2 mi South 6.9 mph - 0.01 in Snow Light Snow
8:31 AM 19.4 °F 9.5 °F 17.6 °F 93% 30.00 in 1.5 mi South 8.1 mph - 0.01 in Snow Light Snow
8:44 AM 19.4 °F 7.2 °F 17.6 °F 93% 30.00 in 1.5 mi South 11.5 mph - 0.01 in Snow Light Snow
8:46 AM 19.4 °F 7.9 °F 17.6 °F 93% 30.00 in 1.2 mi South 10.4 mph - 0.01 in Snow Light Snow
8:53 AM 19.9 °F 11.1 °F 18.0 °F 92% 30.04 in 1.2 mi South 6.9 mph - 0.01 in Snow Light Snow
9:12 AM 21.2 °F 12.6 °F 17.6 °F 86% 30.00 in 0.8 mi South 6.9 mph - 0.00 in Snow Light Snow
9:16 AM 21.2 °F 13.6 °F 17.6 °F 86% 30.00 in 1.0 mi SSW 5.8 mph - 0.00 in Snow Light Snow
9:24 AM 21.2 °F 13.6 °F 19.4 °F 93% 30.00 in 0.8 mi SSW 5.8 mph - 0.01 in Snow Light Snow
9:31 AM 21.2 °F 14.9 °F 19.4 °F 93% 30.00 in 0.5 mi South 4.6 mph - 0.01 in Fog , Snow Snow
9:49 AM 24.8 °F 15.3 °F 21.2 °F 86% 29.99 in 0.2 mi West 9.2 mph - 0.02 in Fog , Snow Snow
9:53 AM 25.0 °F 15.5 °F 21.0 °F 85% 30.03 in 0.2 mi West 9.2 mph 16.1 mph 0.02 in Fog , Snow Snow
10:07 AM 24.8 °F 16.1 °F 21.2 °F 86% 29.99 in 0.2 mi West 8.1 mph - 0.00 in Fog , Snow Snow
10:26 AM 24.8 °F 15.3 °F 21.2 °F 86% 29.98 in 1.0 mi WNW 9.2 mph - 0.00 in Snow Light Snow
10:30 AM 24.8 °F 15.3 °F 21.2 °F 86% 29.98 in 0.5 mi WNW 9.2 mph - 0.00 in Fog , Snow Snow
10:40 AM 24.8 °F 16.1 °F 21.2 °F 86% 29.98 in 0.2 mi NW 8.1 mph 16.1 mph 0.01 in Fog , Snow Snow
10:53 AM 25.0 °F 16.3 °F 21.9 °F 88% 30.01 in 0.2 mi WNW 8.1 mph 16.1 mph 0.01 in Fog , Snow Snow
11:11 AM 24.8 °F 16.1 °F 21.2 °F 86% 29.98 in 0.8 mi NW 8.1 mph - 0.00 in Snow Light Snow
11:13 AM 24.8 °F 16.9 °F 21.2 °F 86% 29.98 in 1.0 mi NW 6.9 mph - 0.00 in Snow Light Snow
11:42 AM 24.8 °F 15.3 °F 19.4 °F 80% 29.98 in 0.8 mi NNW 9.2 mph - 0.00 in Snow Light Snow
11:48 AM 24.8 °F 19.1 °F 19.4 °F 80% 29.98 in 0.8 mi Variable 4.6 mph - 0.00 in Snow Light Snow
11:53 AM 24.1 °F 18.2 °F 19.9 °F 84% 30.01 in 0.5 mi Variable 4.6 mph - 0.01 in Fog , Snow Snow
12:26 PM 21.2 °F 13.6 °F 17.6 °F 86% 29.98 in 0.8 mi NE 5.8 mph - 0.00 in Snow Light Snow
12:36 PM 21.2 °F 11.7 °F 15.8 °F 80% 29.98 in 1.0 mi NNE 8.1 mph - 0.00 in Snow Light Snow
12:53 PM 21.9 °F 13.4 °F 16.0 °F 78% 30.01 in 1.0 mi NNE 6.9 mph - 0.00 in Snow Light Snow
1:08 PM 21.2 °F 13.6 °F 17.6 °F 86% 29.98 in 0.8 mi ENE 5.8 mph - 0.00 in Snow Light Snow
1:22 PM 21.2 °F 14.9 °F 15.8 °F 80% 29.97 in 0.8 mi NNE 4.6 mph - 0.00 in Snow Light Snow
1:35 PM 21.2 °F 16.4 °F 17.6 °F 86% 29.97 in 1.0 mi Variable 3.5 mph - 0.00 in Snow Light Snow
1:53 PM 21.0 °F 14.6 °F 16.0 °F 81% 30.01 in 1.0 mi NE 4.6 mph - 0.00 in Snow Light Snow
2:05 PM 21.2 °F 16.4 °F 15.8 °F 80% 29.97 in 0.8 mi Variable 3.5 mph - 0.00 in Snow Light Snow
2:41 PM 21.2 °F 16.4 °F 15.8 °F 80% 29.97 in 1.0 mi NE 3.5 mph - 0.01 in Snow Light Snow
2:50 PM 19.4 °F 14.3 °F 15.8 °F 86% 29.97 in 0.8 mi NE 3.5 mph - 0.01 in Snow Light Snow
2:53 PM 19.9 °F 13.4 °F 16.0 °F 85% 30.01 in 0.8 mi NE 4.6 mph - 0.01 in Snow Light Snow
3:01 PM 19.4 °F 12.8 °F 15.8 °F 86% 29.97 in 0.5 mi NE 4.6 mph - 0.00 in Fog , Snow Snow
3:10 PM 19.4 °F 12.8 °F 15.8 °F 86% 29.97 in 0.5 mi NE 4.6 mph - 0.00 in Fog , Snow Snow
3:27 PM 19.4 °F 10.4 °F 15.8 °F 86% 29.98 in 0.8 mi ENE 6.9 mph - 0.00 in Snow Light Snow
3:53 PM 19.0 °F 9.0 °F 14.0 °F 81% 30.02 in 0.8 mi NE 8.1 mph - 0.00 in Snow Light Snow
4:01 PM 19.4 °F 10.4 °F 14.0 °F 80% 29.99 in 1.0 mi NE 6.9 mph - 0.00 in Snow Light Snow
4:31 PM 17.6 °F 8.2 °F 12.2 °F 79% 30.01 in 1.8 mi NE 6.9 mph - 0.00 in Snow Light Snow
4:53 PM 17.1 °F 10.0 °F 10.9 °F 77% 30.05 in 3.0 mi NE 4.6 mph - 0.00 in Snow Light Snow
5:53 PM 17.1 °F 11.7 °F 10.0 °F 74% 30.06 in 10.0 mi NE 3.5 mph - 0.00 in   Overcast
6:53 PM 16.0 °F 10.4 °F 10.0 °F 77% 30.06 in 10.0 mi ENE 3.5 mph - N/A   Overcast
7:53 PM 16.0 °F 8.8 °F 8.1 °F 71% 30.07 in 10.0 mi NE 4.6 mph - N/A   Overcast
8:53 PM 16.0 °F 10.4 °F 7.0 °F 68% 30.08 in 10.0 mi East 3.5 mph - N/A   Overcast
9:53 PM 16.0 °F - 8.1 °F 71% 30.07 in 10.0 mi Calm Calm - N/A   Overcast
10:53 PM 15.1 °F - 8.1 °F 74% 30.06 in 10.0 mi Calm Calm - N/A   Overcast
11:53 PM 15.1 °F 9.4 °F 8.1 °F 74% 30.05 in 10.0 mi SE 3.5 mph - N/A   Overcast